Flag for U.S.A. Weather past 2 weeks in Moreno Valley, California, U.S.A.

Now
70 °F

Clear.


Feels Like: 70 °F
Forecast: 68 / 93 °F
Wind: No wind

Location: Riverside / March Air Force Base

Current Time: Aug 30, 2015 at 3:26:51 AM

Latest Report: Aug 30, 2015 at 2:58 AM


Visibility: 10 mi

Pressure: 29.86 "Hg

Humidity: 62%

Dew point: 56 °F

Location of Moreno ValleyLocation

Historic Weather in Moreno Valley — Graph

°F

Moreno Valley temperature yesterday

Maximum temperature yesterday: 100 °F (at 2:58 PM)
Minimum temperature yesterday: 67 °F (at 4:58 AM)
Average temperature yesterday: 84 °F

Past Weeks' High & Low Weather Summary

 TemperatureHumidityPressure
High105 °F (Aug 15, 2:58 PM)100% (Aug 20, 4:02 AM)29.99 "Hg (Aug 20, 4:02 AM)
Low61 °F (Aug 20, 4:02 AM)7% (Aug 16, 11:58 AM)29.79 "Hg (Aug 16, 4:58 PM)
Average79 °F49%29.89 "Hg
* Reported Aug 15 12:58 AM — Aug 30 12:58 AM, Moreno Valley, Weather by CustomWeather, © 2015

Note: Actual official high and low records may vary slightly from our data, if they occured in-between our weather recording intervals... More about our weather records

Advertising

Moreno Valley weather history for previous 24 hours

 ConditionsComfort  
Time TempWeatherWind HumidityBarometerVisibility
12:58 AM
Sun, Aug 30
74 °FClear.No wind56%29.86 "Hg10 mi
11:58 PM
Sat, Aug 29
74 °FClear.No wind55%29.86 "Hg10 mi
10:58 PM78 °FClear.No wind51%29.86 "Hg10 mi
9:58 PM80 °FClear.6 mph48%29.86 "Hg10 mi
8:58 PM83 °FClear.8 mph42%29.86 "Hg10 mi
7:58 PM85 °FSunny.12 mph38%29.84 "Hg10 mi
6:58 PM89 °FSunny.13 mph31%29.83 "Hg10 mi
5:58 PM94 °FSunny.17 mph24%29.82 "Hg10 mi
4:58 PM97 °FSunny.16 mph20%29.82 "Hg10 mi
3:58 PM99 °FSunny.13 mph17%29.83 "Hg10 mi
2:58 PM100 °FSunny.14 mph17%29.84 "Hg10 mi
1:58 PM100 °FSunny.14 mph16%29.86 "Hg10 mi
12:58 PM98 °FSunny.14 mph18%29.87 "Hg10 mi
11:58 AM97 °FSunny.8 mph20%29.90 "Hg10 mi
10:58 AM92 °FSunny.2 mph23%29.91 "Hg10 mi
9:58 AM87 °FSunny.2 mph27%29.90 "Hg10 mi
8:58 AM82 °FSunny.No wind31%29.90 "Hg10 mi
7:58 AM76 °FSunny.No wind41%29.89 "Hg10 mi
6:58 AM69 °FClear.No wind50%29.88 "Hg10 mi
5:58 AM69 °FClear.No wind51%29.86 "Hg10 mi
4:58 AM67 °FClear.3 mph52%29.86 "Hg10 mi
3:58 AM69 °FClear.No wind51%29.86 "Hg10 mi
Weather by CustomWeather, © 2015

See weather overviewHow to use our weather pages